Location: Newark
(43.4306°N, 0.3089°E)
Time: 14:46:44
(UTC+00:00)

Vanguard 3 - Pass Details

Date: 02 September 2019
Orbit: 508 x 3263 km, 33.4° (Epoch: 14 September)

Event Time Altitude Azimuth Distance (km) Brightness Sun altitude
Rises 11:27:59 0° 212° (SSW) 7,210 12.3 53.9°
Reaches altitude 10° 11:34:05 10° 202° (SSW) 6,071 12.2 54.1°
Maximum altitude 11:48:11 29° 153° (SSE) 4,004 11.9 54.4°
Drops below altitude 10° 11:58:30 10° 100° (E) 4,418 11.1 54.5°
Sets 12:02:01 0° 89° (E) 5,034 11.2 54.5°
